Weather in Volosovichi

Belarus     52°32′06″N   29°06′53″E
temp.,
°C
wind,
m/s
gust,
m/s
humid.,
%
clouds,
%
prec.,
mm/h
press.,
hPa
HPBL,
m
17 may, mon
mon1700:00+13sse2393100 0.6 100853
03:00+13se3795100 1.1 1009152
06:00+13se2395100 0.2 100768
09:00+16ene2588100 0.3 1006230
12:00+14nnw3597100 5.0 1005234
15:00+14n3694100 5.4 1004264
18:00+15n2590100 0.1 1003274
21:00+13n2697100 0.5 1003247
18 may, tue
tue1800:00+12nnw279885 0.4 1002193
03:00+12nnw1298100 0.4 100179
06:00+12sw1198100 0.1 100169
09:00+14sw2293100 0.1 1001238
12:00+18sse2373100 0.1 1001973
15:00+19se3369100 0.8 1000898
18:00+16se3687100 4.1 999177
21:00+13sw229835 6.7 99928
19 may, wed
wed1900:00+12ssw1196100 0.3 99910
03:00+12wnw2398100 0.3 100062
06:00+13nw2698100 0.2 1001302
09:00+12nw3697100 2.3 1002371
12:00+12wnw4796100 0.8 1004420
15:00+12nw5892100 0.9 1006707
18:00+12nw51190100 0.0 1007639
21:00+11nnw41091100 0.0 1008521
20 may, thu
thu2000:00+10nw41092100 0.1 1007537
03:00+9nw51294100 1.1 1007563
06:00+9nw51396100 4.5 1006737
09:00+9nw71496100 11.4 1006861
12:00+10nw81593100 2.8 10061280
15:00+9nw81592100 8.6 10071227
18:00+9nw61392100 5.9 1007991
21:00+9wnw41097100 8.5 1007694
21 may, fri
fri2100:00+9nw4994100 3.1 1007662
03:00+9w61395100 8.3 10071084
06:00+9wnw61392100 2.2 1009730
09:00+10wnw71286100 2.2 1011869
12:00+13wnw71063100 0.0 10131166
15:00+15wnw6854100 0.0 10141498
18:00+14wnw4861100 0.0 10151397
21:00+10sw2274100 0.0 101616